Quantico, VA

5:31 PM EST on December 12, 2019 (GMT -0500)
Quantico Marine Corps Air Facility

Weather History for KNYG - October, 2019

Change the Weather History Date:

Friday, October 4, 2019

  Actual Average Record
Temperature  
Mean Temperature 72 °F -  
Max Temperature 82 °F 69 °F 84 °F (2018)
Min Temperature 60 °F 51 °F 41 °F (1996)
Cooling Degree Days 6    
Growing Degree Days 22 (Base 50)    
Moisture  
Dew Point 58 °F    
Average Humidity 62    
Maximum Humidity 91    
Minimum Humidity 28    
Precipitation  
Precipitation 0.00 in - - ()
Sea Level Pressure  
Sea Level Pressure 30.08 in    
Wind  
Wind Speed 11 mph (NNE)    
Max Wind Speed 23 mph    
Max Gust Speed 33 mph    
Visibility 10 miles    
Events      
Averages and records for this station are not official NWS values.
T = Trace of Precipitation, MM = Missing Value Source: NWS Daily Summary

Daily Weather History Graph

Daily Weather History Graph

Search for Another Location

Airport or City:

Astronomy

Oct. 04, 2019 Rise Set
Actual Time 7:07 AM EDT 6:47 PM EDT
Civil Twilight 6:41 AM EDT 7:14 PM EDT
Nautical Twilight 6:10 AM EDT 7:44 PM EDT
Astronomical Twilight 5:39 AM EDT 8:15 PM EDT
Moon 1:33 PM EDT (10/4) 11:19 PM EDT (10/4)
Length of Visible Light 12h 33m
Length of Day
11h 40m
Waxing Crescent, 39% of the Moon is Illuminated
Oct 4
Waxing Crescent
Oct 5
First Quarter
Oct 13
Full
Oct 21
Last Quarter
Oct 27
New

Hourly Weather History & Observations

Time (EDT) Temp. Dew Point Humidity Pressure Visibility Wind Dir Wind Speed Gust Speed Precip Events Conditions
12:31 AM 73.9 °F 71.1 °F 91% 29.94 in 10.0 mi South 9.2 mph - N/A   Overcast
12:56 AM 73.9 °F 71.1 °F 91% 29.94 in 10.0 mi SSW 10.4 mph - N/A   Overcast
1:46 AM 73.9 °F 71.1 °F 91% 29.93 in 10.0 mi WSW 5.8 mph - N/A   Overcast
1:56 AM 73.9 °F 71.1 °F 91% 29.93 in 10.0 mi SSW 8.1 mph - N/A   Overcast
2:56 AM 73.9 °F 71.1 °F 91% 29.94 in 9.0 mi North 4.6 mph - N/A   Overcast
3:56 AM 73.0 °F 70.0 °F 90% 29.95 in 9.0 mi North 3.5 mph - N/A   Overcast
4:38 AM 75.0 °F 70.0 °F 84% 29.96 in 9.0 mi North 6.9 mph - N/A   Overcast
4:56 AM 73.0 °F 70.0 °F 90% 29.97 in 10.0 mi NNE 4.6 mph - N/A   Overcast
5:18 AM 73.0 °F 70.0 °F 90% 29.97 in 10.0 mi North 8.1 mph - N/A   Scattered Clouds
5:56 AM 75.0 °F 68.0 °F 79% 29.99 in 10.0 mi NNE 15.0 mph - N/A   Scattered Clouds
6:56 AM 73.9 °F 63.0 °F 68% 30.02 in 10.0 mi North 13.8 mph 23.0 mph N/A   Clear
7:56 AM 73.0 °F 61.0 °F 66% 30.05 in 10.0 mi NNE 9.2 mph - N/A   Clear
8:56 AM 73.9 °F 57.0 °F 55% 30.08 in 10.0 mi NE 15.0 mph 21.9 mph N/A   Clear
9:56 AM 73.9 °F 55.9 °F 53% 30.10 in 10.0 mi NNE 16.1 mph - N/A   Clear
10:56 AM 75.9 °F 55.0 °F 48% 30.11 in 10.0 mi North 15.0 mph - N/A   Clear
11:56 AM 77.0 °F 54.0 °F 45% 30.12 in 10.0 mi NE 15.0 mph 23.0 mph N/A   Scattered Clouds
12:56 PM 79.0 °F 53.1 °F 40% 30.12 in 10.0 mi NE 20.7 mph 25.3 mph N/A   Scattered Clouds
1:56 PM 80.1 °F 51.1 °F 36% 30.11 in 10.0 mi NNE 12.7 mph 21.9 mph N/A   Partly Cloudy
2:56 PM 81.0 °F 45.0 °F 28% 30.11 in 10.0 mi NNW 11.5 mph 23.0 mph N/A   Partly Cloudy
3:56 PM 78.1 °F 51.1 °F 39% 30.12 in 10.0 mi NNE 11.5 mph 19.6 mph N/A   Partly Cloudy
4:56 PM 78.1 °F 48.0 °F 35% 30.13 in 10.0 mi NNE 17.3 mph 23.0 mph N/A   Partly Cloudy
5:56 PM 77.0 °F 48.0 °F 36% 30.14 in 10.0 mi NNE 12.7 mph - N/A   Partly Cloudy
6:56 PM 73.9 °F 48.9 °F 41% 30.17 in 10.0 mi NNE 10.4 mph - N/A   Clear
7:56 PM 72.0 °F 48.9 °F 44% 30.19 in 10.0 mi NNE 9.2 mph - N/A   Clear
8:56 PM 71.1 °F 51.1 °F 49% 30.22 in 10.0 mi NE 21.9 mph - N/A   Clear
9:56 PM 66.0 °F 48.9 °F 54% 30.27 in 10.0 mi NE 23.0 mph 33.4 mph N/A   Clear
10:56 PM 62.1 °F 46.0 °F 56% 30.31 in 10.0 mi NE 19.6 mph 27.6 mph N/A   Clear
11:56 PM 60.1 °F 44.1 °F 55% 30.34 in 10.0 mi NE 17.3 mph 23.0 mph N/A   Clear